Regional Weather Roundup
Issued by NWS Goodland, KS

Home | Current Version | Previous Version | Graphics & Text | Print | Product List | Glossary On
Versions: 1 2 3 4 5 6 7 8 9 10 11 12 13 14 15 16 17 18 19 20 21 22 23 24 25 26 27 28 29 30 31 32 33 34 35 36 37 38 39 40 41 42 43 44 45 46 47 48 49 50
000
ASUS43 KGLD 230659
RWRGLD

GOODLAND FORECAST AREA HOURLY WEATHER ROUNDUP
NATIONAL WEATHER SERVICE GOODLAND KS
100 AM MDT SAT MAY 23 2015

...OFFICIAL OBSERVATIONS...

CITY           SKY/WX    TMP DP  RH WIND       PRES   REMARKS
GOODLAND KS    LGT RAIN  53  53 100 SE17G33   30.03S FOG
HILL CITY KS   CLOUDY    55  53  93 S14G23    30.11S
IMPERIAL NEB   RAIN      52  51  97 SE17      30.06S
MCCOOK NEB     CLOUDY    54  53  97 SE10      30.09S FOG
AKRON CO       CLOUDY    50  50 100 SE14      30.04R
BURLINGTON CO  FOG       54  53  97 SE17G29   30.01R VSB 1
LIMON CO       CLOUDY    49  47  93 N8        30.03S
$$

...UNOFFICIAL OBSERVATIONS...

CITY           SKY/WX    TMP DP  RH WIND       PRES   REMARKS
GOVE KS          N/A     55  32  41 MISG        N/A
LENORA KS        N/A     54  32  43 MISG        N/A
SHARON SPRINGS   N/A     54  53  95 MISG        N/A
TRENTON NEB      N/A     53  32  45 S14         N/A
KIT CARSON CO    N/A     55  52  91 MISG        N/A
YUMA CO          N/A     53  53 100 E17         N/A
$$


USA.gov is the U.S. government's official web portal to all federal, state and local government web resources and services.